GW6439 Weather Reports


time (UTC)temp
C
wind
direction
speed
KPH
gust
KPH
rain 1hr
cm
rain 24hr
cm
rain mn
cm
humidity
%
barometer
mb
20260506151014 14 117 0.0 1.6 0.00 0.00 0.00 95 1018.9
20260506150056 14 116 0.0 3.2 0.00 0.00 0.00 96 1018.9
20260506145057 14 116 0.0 0.0 0.00 0.00 0.00 96 1018.8
20260506144052 13 116 0.0 1.6 0.00 0.00 0.00 97 1018.8
20260506143038 13 115 0.0 1.6 0.00 0.00 0.00 98 1018.8
20260506142035 13 116 0.0 1.6 0.00 0.00 0.00 98 1018.7
20260506141020 13 117 0.0 1.6 0.00 0.00 0.00 99 1018.6
20260506140041 13 115 0.0 1.6 0.00 0.00 0.00 99 1018.5
20260506135029 13 114 0.0 1.6 0.00 0.00 0.00 99 1018.4
20260506134019 13 96 0.0 0.0 0.00 0.00 0.00 100 1018.3
20260506133027 13 96 0.0 0.0 0.00 0.00 0.00 100 1018.2
20260506132046 13 100 0.0 1.6 0.00 0.00 0.00 100 1018.2
20260506131027 13 100 0.0 3.2 0.00 0.00 0.00 100 1018.2
20260506130035 13 112 0.0 0.0 0.00 0.00 0.00 100 1018.2
20260506125052 13 111 0.0 0.0 0.00 0.00 0.00 100 1018.2
20260506124016 13 110 1.6 3.2 0.00 0.00 0.00 100 1018.0
20260506123034 13 136 0.0 1.6 0.00 0.00 0.00 100 1018.0
20260506122034 13 146 0.0 3.2 0.00 0.00 0.00 99 1018.0
20260506121018 13 105 0.0 0.0 0.00 0.00 0.00 99 1017.8
20260506120023 13 103 1.6 4.8 0.00 0.00 0.00 99 1017.8
20260506115028 13 111 0.0 3.2 0.00 0.00 0.00 99 1017.9
20260506114035 13 116 0.0 1.6 0.00 0.00 0.00 98 1017.8
20260506113017 13 150 0.0 0.0 0.00 0.00 0.00 98 1017.7
20260506112027 13 149 0.0 0.0 0.00 0.00 0.00 98 1017.7
20260506111028 13 116 0.0 1.6 0.00 0.00 0.00 97 1017.6
20260506110019 13 124 0.0 0.0 0.00 0.00 0.00 96 1017.5
20260506105025 13 120 0.0 0.0 0.00 0.00 0.00 95 1017.5
20260506104018 13 120 0.0 0.0 0.00 0.00 0.00 95 1017.3
20260506103025 13 120 0.0 0.0 0.00 0.00 0.00 95 1017.3
20260506102034 13 120 0.0 0.0 0.00 0.00 0.00 95 1017.2
20260506101024 13 120 0.0 1.6 0.00 0.00 0.00 95 1017.2
20260506100035 13 120 0.0 1.6 0.00 0.00 0.00 96 1017.2
20260506095040 13 120 0.0 0.0 0.00 0.00 0.00 96 1017.2
20260506094021 13 120 0.0 1.6 0.00 0.00 0.00 97 1017.1
20260506093048 13 120 0.0 1.6 0.00 0.00 0.00 97 1017.1
20260506092022 13 120 0.0 1.6 0.00 0.00 0.00 97 1017.2
20260506091104 13 129 0.0 0.0 0.00 0.00 0.00 96 1017.1
20260506090023 13 130 0.0 0.0 0.00 0.00 0.00 96 1017.2
20260506085031 13 129 0.0 1.6 0.00 0.00 0.00 96 1017.2
20260506083031 13 133 0.0 1.6 0.00 0.00 0.00 96 1017.2
20260506082053 13 129 0.0 0.0 0.00 0.00 0.00 96 1017.2
20260506081028 14 129 0.0 1.6 0.00 0.00 0.00 96 1017.2
20260506073052 14 308 0.0 0.0 0.00 0.10 0.00 95 1017.0
20260506072046 14 308 0.0 1.6 0.00 0.10 0.00 95 1016.9
20260506071029 14 308 0.0 0.0 0.00 0.10 0.00 94 1016.8
20260506062055 14 80 0.0 1.6 0.00 0.23 0.10 94 1016.4
20260506061030 14 236 0.0 1.6 0.00 0.23 0.10 93 1016.2
20260506051022 15 114 0.0 0.0 0.00 0.46 0.10 92 1015.5
20260506045015 15 114 0.0 0.0 0.00 0.61 0.10 92 1015.4
20260506044030 15 115 0.0 1.6 0.00 0.61 0.10 92 1015.4
20260506043027 15 118 0.0 1.6 0.00 0.61 0.10 92 1015.3
20260506042023 15 118 0.0 1.6 0.00 0.61 0.10 91 1015.1
20260506041015 15 118 0.0 0.0 0.00 0.61 0.10 91 1014.9
20260506040031 15 118 0.0 1.6 0.00 0.61 0.10 90 1014.7
20260506035019 15 118 0.0 1.6 0.00 1.04 0.10 90 1014.8
20260506034018 15 118 0.0 1.6 0.00 1.04 0.10 90 1014.9
20260506033023 16 118 0.0 0.0 0.00 1.04 0.10 90 1014.7
20260506032039 16 118 0.0 1.6 0.00 1.04 0.10 89 1014.5
20260506031054 16 118 0.0 1.6 0.00 1.04 0.10 89 1014.4
20260506030034 16 118 0.0 1.6 0.00 1.04 0.10 88 1014.2
20260506025026 16 120 0.0 1.6 0.00 1.27 0.10 88 1014.2
20260506024027 16 96 0.0 3.2 0.00 1.27 0.10 87 1014.1
20260506023021 16 154 1.6 8.0 0.00 1.27 0.10 87 1013.9
20260506022027 16 190 0.0 4.8 0.00 1.27 0.10 86 1013.8
20260506021016 16 115 0.0 8.0 0.00 1.27 0.10 85 1013.6
20260506020032 16 115 1.6 4.8 0.00 1.27 0.10 85 1013.8
20260506015020 17 113 1.6 6.4 0.00 1.50 0.10 85 1013.8
20260506014045 17 205 1.6 8.0 0.00 1.50 0.10 84 1013.8
20260506013019 17 98 1.6 8.0 0.00 1.50 0.10 84 1013.8
20260506012029 17 149 3.2 6.4 0.00 1.50 0.10 83 1013.7
20260506011027 17 106 3.2 6.4 0.00 1.50 0.10 83 1013.7
20260506010036 17 108 1.6 4.8 0.00 1.50 0.10 82 1013.7
20260506005036 17 191 1.6 6.4 0.00 1.65 0.10 81 1013.5
20260506004035 17 128 3.2 6.4 0.00 1.65 0.10 81 1013.6
20260506003025 17 146 1.6 4.8 0.00 1.65 0.10 82 1013.4
20260506002019 17 126 1.6 6.4 0.00 1.65 0.10 81 1013.5
20260506001021 17 143 0.0 3.2 0.00 1.65 0.10 81 1013.4
20260506000016 17 197 0.0 4.8 0.00 1.65 0.10 80 1013.4
20260505235023 17 127 0.0 3.2 0.00 1.91 0.10 80 1013.4
20260505234029 17 121 1.6 4.8 0.00 1.91 0.10 81 1013.4
20260505233018 17 88 0.0 3.2 0.00 1.91 0.10 81 1013.3
20260505232034 17 140 1.6 3.2 0.00 1.91 0.10 80 1013.4
20260505231026 17 105 0.0 3.2 0.00 1.91 0.10 80 1013.4
20260505230033 17 222 0.0 1.6 0.00 1.91 0.10 83 1013.5
20260505225032 17 193 0.0 1.6 0.00 2.01 0.10 82 1013.4
20260505224039 17 193 0.0 1.6 0.00 2.01 0.10 83 1013.5
20260505223052 17 132 0.0 1.6 0.00 2.01 0.10 82 1013.5
20260505222035 17 224 0.0 4.8 0.00 2.01 0.10 82 1013.7
20260505221037 17 145 0.0 1.6 0.00 2.01 0.10 82 1013.8
20260505220034 17 153 0.0 1.6 0.00 2.01 0.10 80 1013.8
20260505215019 17 210 0.0 3.2 0.00 2.11 0.10 81 1013.8
20260505214032 17 82 1.6 8.0 0.00 2.11 0.10 81 1013.9
20260505213028 18 131 0.0 4.8 0.00 2.11 0.10 81 1013.9
20260505212045 18 143 1.6 4.8 0.00 2.11 0.10 81 1014.0
20260505211016 18 316 1.6 4.8 0.00 2.11 0.10 81 1013.9
20260505210046 17 201 0.0 4.8 0.00 2.11 0.10 81 1013.9
20260505205019 17 315 0.0 3.2 0.00 2.11 0.10 82 1013.9
20260505204022 17 228 0.0 3.2 0.00 2.11 0.10 82 1014.0
20260505203024 17 139 0.0 6.4 0.00 2.11 0.10 81 1013.9
20260505202026 17 229 3.2 8.0 0.00 2.11 0.10 83 1014.0
20260505201018 17 226 3.2 6.4 0.00 2.11 0.10 83 1014.0
20260505200022 17 118 1.6 8.0 0.00 2.11 0.10 83 1014.1
20260505195028 17 128 1.6 6.4 0.00 2.24 0.10 83 1014.1
20260505194023 17 103 0.0 8.0 0.00 2.24 0.10 82 1014.2
20260505193044 17 148 3.2 12.9 0.00 2.24 0.10 83 1014.2
20260505192034 17 162 1.6 8.0 0.00 2.24 0.10 83 1014.2
20260505191017 17 254 1.6 4.8 0.00 2.24 0.10 85 1014.2
20260505190021 17 122 0.0 1.6 0.00 2.24 0.10 84 1014.2
20260505185036 17 204 0.0 1.6 0.00 2.26 0.10 87 1014.2
20260505184034 17 210 0.0 4.8 0.00 2.26 0.10 87 1014.1
20260505183016 16 156 1.6 3.2 0.00 2.26 0.10 87 1014.1
20260505182036 16 115 1.6 3.2 0.00 2.26 0.10 89 1014.1
20260505181022 15 128 1.6 6.4 0.00 2.26 0.10 91 1014.1
20260505180024 15 156 1.6 8.0 0.00 2.26 0.10 91 1014.0
20260505175044 15 121 1.6 3.2 0.00 2.31 0.10 93 1013.9
20260505174029 14 132 1.6 4.8 0.00 2.31 0.10 96 1013.8
20260505173040 13 232 3.2 6.4 0.00 2.31 0.10 99 1013.6
20260505172017 13 108 1.6 4.8 0.00 2.31 0.10 100 1013.8
20260505171016 12 144 1.6 3.2 0.00 2.31 0.10 100 1013.8
20260505170019 12 146 0.0 3.2 0.00 2.31 0.10 100 1013.9
20260505165022 12 101 1.6 6.4 0.00 2.31 0.10 100 1013.9
20260505164023 12 127 0.0 4.8 0.00 2.31 0.10 100 1013.8
20260505163028 12 106 1.6 4.8 0.00 2.31 0.10 100 1013.8
20260505162036 12 125 1.6 4.8 0.00 2.31 0.10 100 1013.8
20260505161018 12 172 1.6 4.8 0.00 2.31 0.10 100 1013.7
20260505153023 11 134 1.6 4.8 0.00 2.31 0.10 100 1013.7
20260505152034 11 160 1.6 4.8 0.00 2.31 0.10 100 1013.5